Regional Weather Roundup
Issued by NWS

Home | Current Version | Previous Version | Graphics & Text | Print | Product List | Glossary On
Versions: 1 2 3 4 5 6 7 8 9 10 11 12 13 14 15 16 17 18 19 20 21 22 23 24 25 26 27 28 29 30 31 32 33 34 35 36 37 38 39 40 41 42 43 44 45 46 47 48 49 50
000
ASUS43 KIND 290259
RWRIN

WEATHER ROUNDUP FOR INDIANA
NATIONAL WEATHER SERVICE INDIANAPOLIS IN
1000 PM EST FRI NOV 28 2014

NOTE: "FAIR" INDICATES FEW OR NO CLOUDS BELOW 12,000 FEET WITH NO
SIGNIFICANT WEATHER AND/OR OBSTRUCTIONS TO VISIBILITY.

* - STATION DOES NOT REPORT WEATHER SUCH AS PRECIPITATION OR FOG.

+ - STATION NOT QUALITY CONTROLLED BY THE NATIONAL WEATHER SERVICE.
    USE DATA WITH CAUTION...ESPECIALLY DEWPOINT AND RELATIVE
    HUMIDITY OBSERVATIONS.

INZ001>003-010>013-019-020-290400-
NORTHWEST INDIANA

CITY           SKY/WX    TMP DP  RH WIND       PRES   REMARKS
GARY /AIRPORT/ CLOUDY    34  25  69 S20       29.95F WCI  22
VALPARAISO     NOT AVBL

$$

LMZ046-743>745-290400-
SOUTHERN LAKE MICHIGAN

STATION/POSITION TIME  TEMP WIND        PRES
                       AIR  DIR/SP/G
                 (UTC) (F)  (DEG/KT/KT) (MB)
MICHIGAN CITY    0200   31  140/ 17/ 21   N/A

$$

INZ004-005-014>016-021>024-290400-
NORTH CENTRAL INDIANA

CITY           SKY/WX    TMP DP  RH WIND       PRES   REMARKS
GOSHEN         CLOUDY    30  21  69 S17       30.00F WCI  18
SOUTH BEND     CLOUDY    32  22  66 S12G17    30.00F WCI  23

$$

INZ006>009-017-018-025>027-290400-
NORTHEAST INDIANA

CITY           SKY/WX    TMP DP  RH WIND       PRES   REMARKS
ANGOLA *+      CLEAR     27  12  54 S9        30.03F WCI  17
FORT WAYNE     CLOUDY    30  21  69 S12       30.06F WCI  20

$$

INZ028-029-035-036-043>045-051>053-290400-
WEST CENTRAL INDIANA

CITY           SKY/WX    TMP DP  RH WIND       PRES   REMARKS
GREENCASTLE +  CLOUDY    32  27  80 S7        30.02F WCI  26
LAFAYETTE      PTCLDY    31  24  75 SE6       30.02R WCI  25
TERRE HAUTE    PTCLDY    34  25  69 S9        30.01F WCI  27

$$

INZ030>032-037>040-046>048-054>057-064-065-290400-
CENTRAL INDIANA

CITY           SKY/WX    TMP DP  RH WIND       PRES   REMARKS
INDIANAPOLIS   CLOUDY    32  22  66 SE7       30.04F WCI  26
-EAGLE CREEK   MOCLDY    33  22  63 SE7       30.04F WCI  27
KOKOMO *+      MOCLDY    30  23  74 S14       30.02F WCI  20
MT COMFORT *+  CLOUDY    32  16  51 S8        30.05F WCI  25
SHELBYVILLE    MOCLDY    34  23  64 SE8       30.06F WCI  27

$$

INZ033-034-041-042-049-050-058-059-290400-
EAST CENTRAL INDIANA

CITY           SKY/WX    TMP DP  RH WIND       PRES   REMARKS
MUNCIE         MOCLDY    32  19  58 S13       30.05F WCI  22

$$

INZ060-061-067>069-081>083-085>088-290400-
SOUTHWEST INDIANA

CITY           SKY/WX    TMP DP  RH WIND       PRES   REMARKS
EVANSVILLE     PTCLDY    37  26  64 SE5       30.06F
HUNTINGBURG *+ CLOUDY    37  23  56 S8        30.06F

$$

INZ062-063-066-070>080-084-089>092-290400-
SOUTH CENTRAL AND SOUTHEAST INDIANA

CITY           SKY/WX    TMP DP  RH WIND       PRES   REMARKS
BLOOMINGTON    CLOUDY    34  25  69 S6        30.04F WCI  29

$$




USA.gov is the U.S. government's official web portal to all federal, state and local government web resources and services.